Date String (YYYY-MM-DD hh:mm:ss) UTC,Instrument flags,absolute air pressure of the measurement (hPa),sample flow rate (lpm),inlet stack bypass flow (lpm),air temperature of the measurement (°C),ambient temperature measured by the external sensor (°C),aerosol sample conditioner tube jacket temperature (°C),OPC LED temperature (°C),internal box temperature (°C),relative humidity of the measurement (%),span deviation,mass concentration of particles derived from Lorenz-Mie calculation of OPC scattering (μg/m³),mass concentration of particles derived from Lorenz-Mie calculation of OPC scattering (μg/m³),mass concentration of particles derived from Lorenz-Mie calculation of OPC scattering (μg/m³)
DateTimeUTC,F1_M11,P_M11,Q1_M11,Q2_M11,T1_M11,T2_M11,T3_M11,T4_M11,T5_M11,U1_M11,ZSPAN_M11,X2_M11,X0_M11,X1_M11
2024-05-28 08:00:00,SystemResetWarning,0835.8,4.99,000.00,030.9,030.1,000.0,039.4,032.6,014.3,0000.0,0002.73,0008.71,0001.78
2024-05-28 08:01:00,SystemResetWarning,0835.8,5.00,000.00,030.9,030.1,000.0,039.4,032.6,014.3,0000.0,0002.75,0008.30,0001.77
2024-05-28 08:02:00,SystemResetWarning,0835.8,5.00,000.00,030.9,030.1,000.0,039.4,032.6,014.3,0000.0,0002.81,0008.49,0001.79
2024-05-28 08:03:00,SystemResetWarning,0835.8,5.00,000.00,030.9,030.1,000.0,039.4,032.6,014.3,0000.0,0002.78,0008.61,0001.79
2024-05-28 08:04:00,SystemResetWarning,0835.8,5.00,000.00,030.9,030.1,000.0,039.4,032.6,014.2,0000.0,0002.79,0009.24,0001.80
2024-05-28 08:05:00,SystemResetWarning,0835.8,4.99,000.00,030.9,030.1,000.0,039.4,032.6,014.2,0000.0,0002.74,0009.09,0001.79
2024-05-28 08:06:00,SystemResetWarning,0835.8,5.00,000.00,030.9,030.1,000.0,039.3,032.5,014.3,0000.0,0002.74,0008.91,0001.80
2024-05-28 08:07:00,SystemResetWarning,0835.8,5.00,000.00,030.9,030.1,000.0,039.3,032.5,014.2,0000.0,0002.77,0008.33,0001.80
2024-05-28 08:08:00,SystemResetWarning,0835.8,5.00,000.00,030.9,030.0,000.0,039.3,032.6,014.2,0000.0,0002.86,0008.70,0001.81
2024-05-28 08:09:00,SystemResetWarning,0835.8,5.00,000.00,030.9,030.0,000.0,039.3,032.5,014.2,0000.0,0002.93,0009.56,0001.82
2024-05-28 08:10:00,SystemResetWarning,0835.8,5.00,000.00,030.9,030.0,000.0,039.3,032.5,014.2,0000.0,0002.99,0009.08,0001.84
2024-05-28 08:11:00,SystemResetWarning,0835.8,5.00,000.00,030.9,030.0,000.0,039.3,032.5,014.2,0000.0,0003.08,0009.56,0001.85
2024-05-28 08:12:00,SystemResetWarning,0835.8,5.00,000.00,030.9,030.0,000.0,039.3,032.5,014.1,0000.0,0003.07,0009.80,0001.86
2024-05-28 08:13:00,SystemResetWarning,0835.8,5.00,000.00,030.9,030.0,000.0,039.3,032.5,014.1,0000.0,0003.13,0011.25,0001.88
2024-05-28 08:14:00,SystemResetWarning,0835.8,4.99,000.00,030.9,030.0,000.0,039.3,032.5,014.1,0000.0,0003.13,0011.92,0001.88
2024-05-28 08:15:00,SystemResetWarning,0835.8,5.00,000.00,030.9,030.0,000.0,039.3,032.5,014.1,0000.0,0003.12,0011.36,0001.88
2024-05-28 08:16:00,SystemResetWarning,0835.8,5.00,000.00,030.9,030.0,000.0,039.3,032.5,014.1,0000.0,0003.13,0011.57,0001.88
2024-05-28 08:17:00,SystemResetWarning,0835.8,5.00,000.00,030.9,030.0,000.0,039.3,032.5,014.1,0000.0,0003.14,0011.61,0001.88
2024-05-28 08:18:00,SystemResetWarning,0835.8,5.01,000.00,030.9,030.0,000.0,039.3,032.5,014.1,0000.0,0003.16,0011.60,0001.89
2024-05-28 08:19:00,SystemResetWarning,0835.9,5.00,000.00,030.9,030.0,000.0,039.3,032.5,014.1,0000.0,0003.14,0011.58,0001.89
2024-05-28 08:20:00,SystemResetWarning,0835.9,4.99,000.00,030.9,030.0,000.0,039.3,032.5,014.1,0000.0,0003.08,0011.26,0001.88
2024-05-28 08:21:00,SystemResetWarning,0835.9,5.00,000.00,030.9,030.0,000.0,039.3,032.5,014.2,0000.0,0003.10,0012.47,0001.89
2024-05-28 08:22:00,SystemResetWarning,0835.9,4.99,000.00,030.9,030.0,000.0,039.3,032.5,014.2,0000.0,0003.08,0013.27,0001.90
2024-05-28 08:23:00,SystemResetWarning,0836.0,5.00,000.00,030.9,030.0,000.0,039.3,032.5,014.4,0000.0,0003.09,0013.69,0001.92
2024-05-28 08:24:00,SystemResetWarning,0836.0,5.00,000.00,030.9,030.0,000.0,039.3,032.5,014.5,0000.0,0003.01,0012.74,0001.91
2024-05-28 08:25:00,SystemResetWarning,0836.0,5.00,000.00,030.9,030.0,000.0,039.3,032.5,014.5,0000.0,0002.97,0011.80,0001.91
2024-05-28 08:26:00,SystemResetWarning,0836.0,5.00,000.00,030.9,030.0,000.0,039.3,032.5,014.5,0000.0,0003.01,0011.91,0001.91
2024-05-28 08:27:00,SystemResetWarning,0836.0,5.00,000.00,030.9,030.0,000.0,039.3,032.5,014.5,0000.0,0002.98,0011.60,0001.90
2024-05-28 08:28:00,SystemResetWarning,0835.9,5.01,000.00,030.9,030.0,000.0,039.3,032.5,014.6,0000.0,0002.97,0011.89,0001.90
2024-05-28 08:29:00,SystemResetWarning,0835.9,5.01,000.00,030.9,030.0,000.0,039.3,032.5,014.6,0000.0,0002.93,0012.26,0001.88
2024-05-28 08:30:00,SystemResetWarning,0835.9,5.01,000.00,030.9,030.0,000.0,039.3,032.5,014.7,0000.0,0002.93,0012.72,0001.87
2024-05-28 08:31:00,SystemResetWarning,0835.9,5.00,000.00,030.9,030.0,000.0,039.3,032.5,014.7,0000.0,0002.95,0012.68,0001.87
2024-05-28 08:32:00,SystemResetWarning,0835.9,5.00,000.00,030.9,030.0,000.0,039.3,032.5,014.7,0000.0,0002.96,0012.30,0001.86
2024-05-28 08:33:00,SystemResetWarning,0835.8,4.99,000.00,030.9,030.0,000.0,039.3,032.5,014.7,0000.0,0002.94,0010.64,0001.85
2024-05-28 08:34:00,SystemResetWarning,0835.8,5.00,000.00,030.9,030.0,000.0,039.3,032.5,014.7,0000.0,0002.85,0009.46,0001.83
2024-05-28 08:35:00,SystemResetWarning,0835.8,5.01,000.00,030.9,030.0,000.0,039.3,032.5,014.7,0000.0,0002.78,0009.09,0001.81
2024-05-28 08:36:00,SystemResetWarning,0835.8,5.01,000.00,030.9,030.0,000.0,039.3,032.5,014.7,0000.0,0002.80,0009.24,0001.79
2024-05-28 08:37:00,SystemResetWarning,0835.8,5.01,000.00,030.9,030.0,000.0,039.3,032.5,014.7,0000.0,0002.73,0008.98,0001.78
2024-05-28 08:38:00,SystemResetWarning,0835.8,5.00,000.00,030.9,030.0,000.0,039.3,032.5,014.7,0000.0,0002.67,0009.05,0001.77
2024-05-28 08:39:00,SystemResetWarning,0835.8,4.99,000.00,030.9,030.0,000.0,039.3,032.5,014.7,0000.0,0002.65,0009.07,0001.76
2024-05-28 08:40:00,SystemResetWarning,0835.8,4.99,000.00,030.9,030.0,000.0,039.3,032.5,014.7,0000.0,0002.68,0008.88,0001.76
2024-05-28 08:41:00,SystemResetWarning,0835.8,5.00,000.00,030.9,030.0,000.0,039.3,032.5,014.7,0000.0,0002.68,0008.75,0001.75
2024-05-28 08:42:00,SystemResetWarning,0835.7,5.00,000.00,030.9,030.0,000.0,039.3,032.5,014.8,0000.0,0002.67,0008.18,0001.75
2024-05-28 08:43:00,SystemResetWarning,0835.6,5.00,000.00,030.9,030.0,000.0,039.3,032.5,014.8,0000.0,0002.62,0008.01,0001.74
2024-05-28 08:44:00,SystemResetWarning,0835.6,5.01,000.00,030.9,030.0,000.0,039.3,032.5,014.8,0000.0,0002.64,0008.42,0001.75
2024-05-28 08:45:00,SystemResetWarning,0835.7,5.00,000.00,030.9,030.0,000.0,039.3,032.5,014.8,0000.0,0002.62,0008.29,0001.73
2024-05-28 08:46:00,SystemResetWarning,0835.6,5.00,000.00,030.9,030.0,000.0,039.3,032.5,014.8,0000.0,0002.62,0008.34,0001.73
2024-05-28 08:47:00,SystemResetWarning,0835.6,5.00,000.00,030.9,030.0,000.0,039.3,032.5,014.8,0000.0,0002.60,0008.52,0001.73
2024-05-28 08:48:00,SystemResetWarning,0835.6,5.00,000.00,030.9,030.0,000.0,039.3,032.5,014.8,0000.0,0002.63,0008.61,0001.73
2024-05-28 08:49:00,SystemResetWarning,0835.6,5.00,000.00,030.8,030.0,000.0,039.3,032.5,014.8,0000.0,0002.75,0008.48,0001.74
2024-05-28 08:50:00,SystemResetWarning,0835.6,5.00,000.00,030.8,030.0,000.0,039.3,032.5,014.8,0000.0,0002.85,0008.25,0001.75
2024-05-28 08:51:00,SystemResetWarning,0835.6,5.00,000.00,030.8,030.0,000.0,039.3,032.5,014.9,0000.0,0002.80,0007.85,0001.75
2024-05-28 08:52:00,SystemResetWarning,0835.6,5.00,000.00,030.8,030.0,000.0,039.3,032.5,014.9,0000.0,0002.80,0007.84,0001.74
2024-05-28 08:53:00,SystemResetWarning,0835.6,5.00,000.00,030.8,030.0,000.0,039.3,032.5,014.9,0000.0,0002.77,0007.66,0001.73
2024-05-28 08:54:00,SystemResetWarning,0835.6,5.01,000.00,030.8,030.0,000.0,039.3,032.5,015.0,0000.0,0002.79,0007.69,0001.74
2024-05-28 08:55:00,SystemResetWarning,0835.6,5.01,000.00,030.8,029.9,000.0,039.3,032.5,015.0,0000.0,0002.80,0007.32,0001.74
2024-05-28 08:56:00,SystemResetWarning,0835.6,5.01,000.00,030.8,029.9,000.0,039.3,032.4,015.0,0000.0,0002.83,0007.28,0001.74
2024-05-28 08:57:00,SystemResetWarning,0835.6,4.99,000.00,030.8,029.9,000.0,039.2,032.4,015.0,0000.0,0002.89,0006.82,0001.75
2024-05-28 08:58:00,SystemResetWarning,0835.5,4.99,000.00,030.8,029.9,000.0,039.2,032.4,015.1,0000.0,0002.85,0005.95,0001.76
2024-05-28 08:59:00,SystemResetWarning,0835.6,4.99,000.00,030.8,029.9,000.0,039.2,032.4,015.0,0000.0,0002.79,0006.29,0001.76
